Location: Caoba
(9.7667°N, 67.4833°W)
Time: 19:23:28
(UTC+00:00)

GOES 2 Rocket - Pass Details

Date: 12 December 2024
Orbit: 569 x 1662 km, 28.4° (Epoch: 14 January)

Event Time Altitude Azimuth Distance (km) Brightness Sun altitude
Rises 23:44:17 0° 241° (WSW) 4,858 9.1 -22.2°
Reaches altitude 10° 23:47:42 10° 242° (WSW) 3,811 8.2 -22.9°
Maximum altitude 23:57:44 88° 332° (NNW) 1,399 4.7 -25.3°
Enters shadow 00:00:35 48° 58° (ENE) 1,664 4.7 -25.9°
